GW5948 Weather Reports


Display with metric or nautical units.
time (UTC)temp
F
wind
direction
speed
MPH
gust
MPH
rain 1hr
in
rain 24hr
in
rain mn
in
humidity
%
barometer
mb
20260505041020 57 42 3.0 6.0 0.00 0.00 0.00 54 1013.3
20260505040020 57 151 2.0 5.0 0.00 0.00 0.00 54 1013.2
20260505035019 56 96 2.0 4.0 0.00 0.00 0.00 54 1013.2
20260505034019 56 115 2.0 4.0 0.00 0.00 0.00 54 1013.1
20260505033018 55 161 2.0 5.0 0.00 0.00 0.00 55 1013.0
20260505032019 55 64 2.0 4.0 0.00 0.00 0.00 56 1013.1
20260505031100 55 250 0.0 4.0 0.00 0.00 0.00 55 1013.0
20260505030018 55 101 2.0 6.0 0.00 0.00 0.00 54 1013.0
20260505025040 55 42 3.0 4.0 0.00 0.00 0.00 54 1012.9
20260505024020 55 38 2.0 4.0 0.00 0.00 0.00 55 1013.0
20260505023019 55 61 1.0 4.0 0.00 0.00 0.00 55 1012.9
20260505022020 55 126 2.0 4.0 0.00 0.00 0.00 54 1013.0
20260505021020 56 118 1.0 4.0 0.00 0.00 0.00 54 1013.0
20260505020020 56 105 3.0 7.0 0.00 0.00 0.00 53 1012.8
20260505015020 55 25 4.0 8.0 0.00 0.00 0.00 54 1013.0
20260505014019 55 81 2.0 4.0 0.00 0.00 0.00 54 1012.9
20260505013059 55 101 2.0 4.0 0.00 0.00 0.00 54 1012.9
20260505012019 56 114 3.0 4.0 0.00 0.00 0.00 53 1012.8
20260505011020 55 100 1.0 2.0 0.00 0.00 0.00 54 1012.9
20260505010040 56 116 0.0 2.0 0.00 0.00 0.00 53 1012.8
20260505005019 56 118 2.0 2.0 0.00 0.00 0.00 53 1012.8
20260505004019 56 118 2.0 3.0 0.00 0.00 0.00 52 1012.9
20260505003020 57 114 4.0 6.0 0.00 0.00 0.00 51 1012.9
20260505002020 57 115 3.0 4.0 0.00 0.00 0.00 52 1012.9
20260505001019 57 109 2.0 4.0 0.00 0.00 0.00 51 1012.9
20260505000019 57 106 3.0 4.0 0.00 0.00 0.00 51 1013.0
20260504235021 57 106 4.0 6.0 0.00 0.00 0.00 50 1013.0
20260504234018 57 101 2.0 3.0 0.00 0.00 0.00 51 1013.1
20260504233019 58 114 3.0 5.0 0.00 0.00 0.00 50 1013.1
20260504232020 57 114 3.0 5.0 0.00 0.00 0.00 50 1013.2
20260504231020 58 120 2.0 4.0 0.00 0.00 0.00 50 1013.3
20260504230019 58 118 2.0 3.0 0.00 0.00 0.00 51 1013.2
20260504225020 58 116 1.0 2.0 0.00 0.00 0.00 50 1013.2
20260504224021 59 130 3.0 5.0 0.00 0.00 0.00 48 1013.1
20260504223019 59 127 3.0 4.0 0.00 0.00 0.00 48 1013.2
20260504222020 59 125 3.0 5.0 0.00 0.00 0.00 49 1013.3
20260504221019 59 129 2.0 4.0 0.00 0.00 0.00 49 1013.2
20260504220019 60 147 3.0 4.0 0.00 0.00 0.00 48 1013.3
20260504215019 60 146 2.0 3.0 0.00 0.00 0.00 49 1013.3
20260504214018 60 164 2.0 3.0 0.00 0.00 0.00 49 1013.3
20260504213038 61 130 2.0 4.0 0.00 0.00 0.00 48 1013.3
20260504212017 61 154 2.0 4.0 0.00 0.00 0.00 47 1013.2
20260504211017 62 121 3.0 4.0 0.00 0.00 0.00 45 1013.2
20260504210018 63 125 2.0 4.0 0.00 0.00 0.00 45 1013.2
20260504205018 63 118 3.0 5.0 0.00 0.00 0.00 44 1013.2
20260504204017 63 113 3.0 4.0 0.00 0.00 0.00 45 1013.1
20260504203017 63 122 3.0 4.0 0.00 0.00 0.00 45 1013.1
20260504202017 63 119 3.0 4.0 0.00 0.00 0.00 45 1013.2
20260504201040 64 113 3.0 4.0 0.00 0.00 0.00 44 1013.2
20260504200026 65 120 2.0 4.0 0.00 0.00 0.00 43 1013.1
20260504195018 65 122 3.0 4.0 0.00 0.00 0.00 43 1013.0
20260504194018 65 114 2.0 3.0 0.00 0.00 0.00 43 1013.1
20260504193017 66 100 3.0 4.0 0.00 0.00 0.00 42 1013.0
20260504192016 66 95 3.0 4.0 0.00 0.00 0.00 42 1013.0
20260504191016 67 96 3.0 4.0 0.00 0.00 0.00 42 1012.8
20260504190017 67 107 3.0 4.0 0.00 0.00 0.00 41 1012.9
20260504185017 67 110 3.0 4.0 0.00 0.00 0.00 41 1012.8
20260504184017 67 109 3.0 4.0 0.00 0.00 0.00 41 1012.8
20260504183017 67 118 2.0 4.0 0.00 0.00 0.00 42 1012.7
20260504182017 68 123 2.0 3.0 0.00 0.00 0.00 42 1012.7
20260504181017 68 130 2.0 3.0 0.00 0.00 0.00 42 1012.5
20260504180018 69 145 0.0 2.0 0.00 0.00 0.00 41 1012.3
20260504175017 70 103 2.0 4.0 0.00 0.00 0.00 39 1012.3
20260504174017 70 86 3.0 4.0 0.00 0.00 0.00 39 1012.2
20260504173017 70 79 3.0 4.0 0.00 0.00 0.00 39 1012.2
20260504172016 71 88 2.0 4.0 0.00 0.00 0.00 39 1012.3
20260504171017 71 93 2.0 3.0 0.00 0.00 0.00 39 1012.1
20260504151019 77 50 4.0 8.0 0.00 0.00 0.00 33 1012.0
20260504140519 77 34 7.0 16.0 0.00 0.00 0.00 32 1012.4
20260504130519 77 28 8.0 13.0 0.00 0.00 0.00 30 1012.7
20260504110518 74 27 3.0 11.0 0.00 0.00 0.00 36 1013.7
20260504100520 71 22 4.0 8.0 0.00 0.00 0.00 39 1014.3
20260504081520 64 331 4.0 9.0 0.00 0.00 0.00 54 1014.7
20260504080519 63 329 4.0 10.0 0.00 0.00 0.00 56 1014.6
20260504050521 51 152 4.0 6.0 0.00 0.00 0.00 62 1014.5
20260504045520 51 179 3.0 6.0 0.00 0.00 0.00 62 1014.5
20260504044544 51 170 4.0 6.0 0.00 0.00 0.00 62 1014.5